owner,sensor,date,latitude,longitude,vertical_datum,wind_speed,wind_to_direction,wind_speed_of_gust,qcFlag 
COMPS,ioos:station:USF.COMPS:TAR:1,2014-08-01T00:00:00Z,28.1560,-82.7580,7.0,2.04,339.04,3.33,'1111122,1111122,1111122' 
COMPS,ioos:station:USF.COMPS:TAR:1,2014-08-01T00:06:00Z,28.1560,-82.7580,7.0,1.63,334.0,2.54,'1111122,1111122,1111122' 
COMPS,ioos:station:USF.COMPS:TAR:1,2014-08-01T00:12:00Z,28.1560,-82.7580,7.0,1.6,326.51,2.45,'1111122,1111122,1111122' 
COMPS,ioos:station:USF.COMPS:TAR:1,2014-08-01T00:18:00Z,28.1560,-82.7580,7.0,1.64,333.16,2.54,'1111122,1111122,1111122' 
COMPS,ioos:station:USF.COMPS:TAR:1,2014-08-01T00:24:00Z,28.1560,-82.7580,7.0,1.45,328.01,2.05,'1111122,1111122,1111122' 
COMPS,ioos:station:USF.COMPS:TAR:1,2014-08-01T00:30:00Z,28.1560,-82.7580,7.0,1.36,325.7,2.15,'1111122,1111122,1111122' 
COMPS,ioos:station:USF.COMPS:TAR:1,2014-08-01T00:36:00Z,28.1560,-82.7580,7.0,1.25,329.3,2.25,'1111122,1111122,1111122' 
COMPS,ioos:station:USF.COMPS:TAR:1,2014-08-01T00:42:00Z,28.1560,-82.7580,7.0,1.22,326.32,1.86,'1111122,1111122,1111122' 
COMPS,ioos:station:USF.COMPS:TAR:1,2014-08-01T00:48:00Z,28.1560,-82.7580,7.0,1.2,331.09,1.86,'1111122,1111122,1111122' 
COMPS,ioos:station:USF.COMPS:TAR:1,2014-08-01T00:54:00Z,28.1560,-82.7580,7.0,0.95,329.71,1.95,'1111122,1111122,1111122' 
COMPS,ioos:station:USF.COMPS:TAR:1,2014-08-01T01:00:00Z,28.1560,-82.7580,7.0,0.92,337.88,1.46,'1111122,1111122,1111122' 
COMPS,ioos:station:USF.COMPS:TAR:1,2014-08-01T01:06:00Z,28.1560,-82.7580,7.0,0.83,338.31,1.27,'1111122,1111122,1111122' 
COMPS,ioos:station:USF.COMPS:TAR:1,2014-08-01T01:12:00Z,28.1560,-82.7580,7.0,0.97,331.48,1.76,'1111122,1111122,1111122' 
COMPS,ioos:station:USF.COMPS:TAR:1,2014-08-01T01:18:00Z,28.1560,-82.7580,7.0,0.77,340.75,1.27,'1111122,1111122,1111122' 
COMPS,ioos:station:USF.COMPS:TAR:1,2014-08-01T01:24:00Z,28.1560,-82.7580,7.0,0.81,334.22,1.46,'1111122,1111122,1111122' 
COMPS,ioos:station:USF.COMPS:TAR:1,2014-08-01T01:30:00Z,28.1560,-82.7580,7.0,1.05,329.65,1.56,'1111122,1111122,1111122' 
COMPS,ioos:station:USF.COMPS:TAR:1,2014-08-01T01:36:00Z,28.1560,-82.7580,7.0,1.17,336.48,1.76,'1111122,1111122,1111122' 
COMPS,ioos:station:USF.COMPS:TAR:1,2014-08-01T01:42:00Z,28.1560,-82.7580,7.0,0.97,340.55,1.37,'1111122,1111122,1111122' 
COMPS,ioos:station:USF.COMPS:TAR:1,2014-08-01T01:48:00Z,28.1560,-82.7580,7.0,0.97,332.21,1.37,'1111122,1111122,1111122' 
COMPS,ioos:station:USF.COMPS:TAR:1,2014-08-01T01:54:00Z,28.1560,-82.7580,7.0,0.9,343.32,1.95,'1111122,1111122,1111122' 
COMPS,ioos:station:USF.COMPS:TAR:1,2014-08-01T02:00:00Z,28.1560,-82.7580,7.0,0.85,318.98,1.37,'1111122,1111122,1111122' 
COMPS,ioos:station:USF.COMPS:TAR:1,2014-08-01T02:06:00Z,28.1560,-82.7580,7.0,0.67,335.65,1.17,'1111122,1111122,1111122' 
COMPS,ioos:station:USF.COMPS:TAR:1,2014-08-01T02:12:00Z,28.1560,-82.7580,7.0,0.65,337.97,1.07,'1111122,1111122,1111122' 
COMPS,ioos:station:USF.COMPS:TAR:1,2014-08-01T02:18:00Z,28.1560,-82.7580,7.0,0.8,336.92,1.27,'1111122,1111122,1111122' 
COMPS,ioos:station:USF.COMPS:TAR:1,2014-08-01T02:24:00Z,28.1560,-82.7580,7.0,0.68,7.85,0.97,'1111122,1111122,1111122' 
COMPS,ioos:station:USF.COMPS:TAR:1,2014-08-01T02:30:00Z,28.1560,-82.7580,7.0,0.68,354.38,1.17,'1111122,1111122,1111122' 
COMPS,ioos:station:USF.COMPS:TAR:1,2014-08-01T02:36:00Z,28.1560,-82.7580,7.0,0.48,329.73,1.07,'1111122,1111122,1111122' 
COMPS,ioos:station:USF.COMPS:TAR:1,2014-08-01T02:42:00Z,28.1560,-82.7580,7.0,0.42,337.18,1.17,'1111122,1111122,1111122' 
COMPS,ioos:station:USF.COMPS:TAR:1,2014-08-01T02:48:00Z,28.1560,-82.7580,7.0,0.54,350.73,0.88,'1111122,1111122,1111122' 
COMPS,ioos:station:USF.COMPS:TAR:1,2014-08-01T02:54:00Z,28.1560,-82.7580,7.0,0.61,24.99,0.97,'1111122,1111122,1111122' 
COMPS,ioos:station:USF.COMPS:TAR:1,2014-08-01T03:00:00Z,28.1560,-82.7580,7.0,0.51,57.73,0.88,'1111122,1111122,1111122' 
COMPS,ioos:station:USF.COMPS:TAR:1,2014-08-01T03:06:00Z,28.1560,-82.7580,7.0,0.23,65.1,0.58,'1111122,1111122,1111122' 
COMPS,ioos:station:USF.COMPS:TAR:1,2014-08-01T03:12:00Z,28.1560,-82.7580,7.0,0.24,41.53,0.58,'1111122,1111122,1111122' 
COMPS,ioos:station:USF.COMPS:TAR:1,2014-08-01T03:18:00Z,28.1560,-82.7580,7.0,0.16,60.22,0.58,'1111122,1111122,1111122' 
COMPS,ioos:station:USF.COMPS:TAR:1,2014-08-01T03:24:00Z,28.1560,-82.7580,7.0,0.31,174.81,0.58,'1111122,1111122,1111122' 
COMPS,ioos:station:USF.COMPS:TAR:1,2014-08-01T03:30:00Z,28.1560,-82.7580,7.0,0.2,151.72,0.39,'1111122,1111122,1111122' 
COMPS,ioos:station:USF.COMPS:TAR:1,2014-08-01T03:36:00Z,28.1560,-82.7580,7.0,0.26,195.4,0.58,'1111122,1111122,1111122' 
COMPS,ioos:station:USF.COMPS:TAR:1,2014-08-01T03:42:00Z,28.1560,-82.7580,7.0,0.12,333.89,0.58,'1111122,1111122,1111122' 
COMPS,ioos:station:USF.COMPS:TAR:1,2014-08-01T03:48:00Z,28.1560,-82.7580,7.0,0.17,336.06,0.49,'1111122,1111122,1111122' 
COMPS,ioos:station:USF.COMPS:TAR:1,2014-08-01T03:54:00Z,28.1560,-82.7580,7.0,0.46,5.49,0.78,'1111122,1111122,1111122' 
COMPS,ioos:station:USF.COMPS:TAR:1,2014-08-01T04:00:00Z,28.1560,-82.7580,7.0,0.29,41.51,0.68,'1111122,1111122,1111122' 
COMPS,ioos:station:USF.COMPS:TAR:1,2014-08-01T04:06:00Z,28.1560,-82.7580,7.0,0.19,21.4,0.58,'1111122,1111122,1111122' 
COMPS,ioos:station:USF.COMPS:TAR:1,2014-08-01T04:12:00Z,28.1560,-82.7580,7.0,0.18,183.3,0.49,'1111122,1111122,1111122' 
COMPS,ioos:station:USF.COMPS:TAR:1,2014-08-01T04:24:00Z,28.1560,-82.7580,7.0,0.06,184.26,0.39,'1111122,1111122,1111122' 
COMPS,ioos:station:USF.COMPS:TAR:1,2014-08-01T04:30:00Z,28.1560,-82.7580,7.0,0.37,185.1,0.58,'1111122,1111122,1111122' 
COMPS,ioos:station:USF.COMPS:TAR:1,2014-08-01T04:36:00Z,28.1560,-82.7580,7.0,0.53,180.49,0.78,'1111122,1111122,1111122' 
COMPS,ioos:station:USF.COMPS:TAR:1,2014-08-01T04:42:00Z,28.1560,-82.7580,7.0,0.28,174.99,0.58,'1111122,1111122,1111122' 
COMPS,ioos:station:USF.COMPS:TAR:1,2014-08-01T04:48:00Z,28.1560,-82.7580,7.0,0.02,178.78,0.19,'1111122,1111122,1111122' 
COMPS,ioos:station:USF.COMPS:TAR:1,2014-08-01T04:54:00Z,28.1560,-82.7580,7.0,0.07,22.68,0.29,'1111122,1111122,1111122' 
COMPS,ioos:station:USF.COMPS:TAR:1,2014-08-01T05:00:00Z,28.1560,-82.7580,7.0,0.13,20.8,0.49,'1111122,1111122,1111122' 
COMPS,ioos:station:USF.COMPS:TAR:1,2014-08-01T05:06:00Z,28.1560,-82.7580,7.0,0.17,190.71,0.49,'1111122,1111122,1111122' 
COMPS,ioos:station:USF.COMPS:TAR:1,2014-08-01T05:12:00Z,28.1560,-82.7580,7.0,0.37,169.8,0.58,'1111122,1111122,1111122' 
COMPS,ioos:station:USF.COMPS:TAR:1,2014-08-01T05:18:00Z,28.1560,-82.7580,7.0,0.61,182.41,0.78,'1111122,1111122,1111122' 
COMPS,ioos:station:USF.COMPS:TAR:1,2014-08-01T05:24:00Z,28.1560,-82.7580,7.0,0.63,177.01,0.88,'1111122,1111122,1111122' 
COMPS,ioos:station:USF.COMPS:TAR:1,2014-08-01T05:30:00Z,28.1560,-82.7580,7.0,0.16,165.92,0.49,'1111122,1111122,1111122' 
COMPS,ioos:station:USF.COMPS:TAR:1,2014-08-01T05:36:00Z,28.1560,-82.7580,7.0,0.1,154.35,0.29,'1111122,1111122,1111122' 
COMPS,ioos:station:USF.COMPS:TAR:1,2014-08-01T05:42:00Z,28.1560,-82.7580,7.0,0.5,187.86,0.68,'1111122,1111122,1111122' 
COMPS,ioos:station:USF.COMPS:TAR:1,2014-08-01T05:48:00Z,28.1560,-82.7580,7.0,0.6,185.56,0.88,'1111122,1111122,1111122' 
COMPS,ioos:station:USF.COMPS:TAR:1,2014-08-01T05:54:00Z,28.1560,-82.7580,7.0,0.37,165.23,0.68,'1111122,1111122,1111122' 
COMPS,ioos:station:USF.COMPS:TAR:1,2014-08-01T06:00:00Z,28.1560,-82.7580,7.0,0.27,167.47,0.58,'1111122,1111122,1111122' 
COMPS,ioos:station:USF.COMPS:TAR:1,2014-08-01T06:06:00Z,28.1560,-82.7580,7.0,0.36,173.53,0.49,'1111122,1111122,1111122' 
COMPS,ioos:station:USF.COMPS:TAR:1,2014-08-01T06:12:00Z,28.1560,-82.7580,7.0,0.2,124.75,0.39,'1111122,1111122,1111122' 
COMPS,ioos:station:USF.COMPS:TAR:1,2014-08-01T06:18:00Z,28.1560,-82.7580,7.0,0.16,178.87,0.58,'1111122,1111122,1111122' 
COMPS,ioos:station:USF.COMPS:TAR:1,2014-08-01T06:24:00Z,28.1560,-82.7580,7.0,0.3,174.25,0.58,'1111122,1111122,1111122' 
COMPS,ioos:station:USF.COMPS:TAR:1,2014-08-01T06:30:00Z,28.1560,-82.7580,7.0,0.07,96.46,0.29,'1111122,1111122,1111122' 
COMPS,ioos:station:USF.COMPS:TAR:1,2014-08-01T06:36:00Z,28.1560,-82.7580,7.0,0.37,175.38,0.58,'1111122,1111122,1111122' 
COMPS,ioos:station:USF.COMPS:TAR:1,2014-08-01T06:42:00Z,28.1560,-82.7580,7.0,0.39,160.39,0.49,'1111122,1111122,1111122' 
COMPS,ioos:station:USF.COMPS:TAR:1,2014-08-01T06:48:00Z,28.1560,-82.7580,7.0,0.17,91.16,0.49,'1111122,1111122,1111122' 
COMPS,ioos:station:USF.COMPS:TAR:1,2014-08-01T06:54:00Z,28.1560,-82.7580,7.0,0.35,132.65,0.68,'1111122,1111122,1111122' 
COMPS,ioos:station:USF.COMPS:TAR:1,2014-08-01T07:00:00Z,28.1560,-82.7580,7.0,0.62,174.87,0.78,'1111122,1111122,1111122' 
COMPS,ioos:station:USF.COMPS:TAR:1,2014-08-01T07:06:00Z,28.1560,-82.7580,7.0,0.25,166.79,0.78,'1111122,1111122,1111122' 
COMPS,ioos:station:USF.COMPS:TAR:1,2014-08-01T07:12:00Z,28.1560,-82.7580,7.0,0.1,61.31,0.49,'1111122,1111122,1111122' 
COMPS,ioos:station:USF.COMPS:TAR:1,2014-08-01T07:18:00Z,28.1560,-82.7580,7.0,0.16,204.46,0.49,'1111122,1111122,1111122' 
COMPS,ioos:station:USF.COMPS:TAR:1,2014-08-01T07:30:00Z,28.1560,-82.7580,7.0,0.18,192.79,0.49,'1111122,1111122,1111122' 
COMPS,ioos:station:USF.COMPS:TAR:1,2014-08-01T07:36:00Z,28.1560,-82.7580,7.0,0.28,133.37,0.49,'1111122,1111122,1111122' 
COMPS,ioos:station:USF.COMPS:TAR:1,2014-08-01T07:42:00Z,28.1560,-82.7580,7.0,0.55,87.19,0.78,'1111122,1111122,1111122' 
COMPS,ioos:station:USF.COMPS:TAR:1,2014-08-01T07:48:00Z,28.1560,-82.7580,7.0,0.4,103.36,0.88,'1111122,1111122,1111122' 
COMPS,ioos:station:USF.COMPS:TAR:1,2014-08-01T07:54:00Z,28.1560,-82.7580,7.0,0.49,111.09,0.78,'1111122,1111122,1111122' 
COMPS,ioos:station:USF.COMPS:TAR:1,2014-08-01T08:00:00Z,28.1560,-82.7580,7.0,0.2,106.17,0.58,'1111122,1111122,1111122' 
COMPS,ioos:station:USF.COMPS:TAR:1,2014-08-01T08:06:00Z,28.1560,-82.7580,7.0,0.27,162.76,0.58,'1111122,1111122,1111122' 
COMPS,ioos:station:USF.COMPS:TAR:1,2014-08-01T08:12:00Z,28.1560,-82.7580,7.0,0.14,82.91,0.68,'1111122,1111122,1111122' 
COMPS,ioos:station:USF.COMPS:TAR:1,2014-08-01T08:18:00Z,28.1560,-82.7580,7.0,0.4,111.37,0.68,'1111122,1111122,1111122' 
COMPS,ioos:station:USF.COMPS:TAR:1,2014-08-01T08:24:00Z,28.1560,-82.7580,7.0,0.45,189.05,0.58,'1111122,1111122,1111122' 
COMPS,ioos:station:USF.COMPS:TAR:1,2014-08-01T08:30:00Z,28.1560,-82.7580,7.0,0.43,174.55,0.78,'1111122,1111122,1111122' 
COMPS,ioos:station:USF.COMPS:TAR:1,2014-08-01T08:36:00Z,28.1560,-82.7580,7.0,0.08,171.37,0.39,'1111122,1111122,1111122' 
COMPS,ioos:station:USF.COMPS:TAR:1,2014-08-01T08:42:00Z,28.1560,-82.7580,7.0,0.32,185.73,0.58,'1111122,1111122,1111122' 
COMPS,ioos:station:USF.COMPS:TAR:1,2014-08-01T08:48:00Z,28.1560,-82.7580,7.0,0.49,189.77,0.68,'1111122,1111122,1111122' 
COMPS,ioos:station:USF.COMPS:TAR:1,2014-08-01T08:54:00Z,28.1560,-82.7580,7.0,0.26,161.41,0.49,'1111122,1111122,1111122' 
COMPS,ioos:station:USF.COMPS:TAR:1,2014-08-01T09:00:00Z,28.1560,-82.7580,7.0,0.15,169.1,0.58,'1111122,1111122,1111122' 
COMPS,ioos:station:USF.COMPS:TAR:1,2014-08-01T09:06:00Z,28.1560,-82.7580,7.0,0.16,113.27,0.78,'1111122,1111122,1111122' 
COMPS,ioos:station:USF.COMPS:TAR:1,2014-08-01T09:12:00Z,28.1560,-82.7580,7.0,0.98,36.51,2.05,'1111122,1111122,1111122' 
COMPS,ioos:station:USF.COMPS:TAR:1,2014-08-01T09:18:00Z,28.1560,-82.7580,7.0,0.68,36.61,0.97,'1111122,1111122,1111122' 
COMPS,ioos:station:USF.COMPS:TAR:1,2014-08-01T09:24:00Z,28.1560,-82.7580,7.0,0.45,52.21,0.88,'1111122,1111122,1111122' 
COMPS,ioos:station:USF.COMPS:TAR:1,2014-08-01T09:30:00Z,28.1560,-82.7580,7.0,0.15,53.7,0.39,'1111122,1111122,1111122' 
COMPS,ioos:station:USF.COMPS:TAR:1,2014-08-01T09:36:00Z,28.1560,-82.7580,7.0,0.22,141.68,0.49,'1111122,1111122,1111122' 
COMPS,ioos:station:USF.COMPS:TAR:1,2014-08-01T09:42:00Z,28.1560,-82.7580,7.0,0.4,171.1,0.49,'1111122,1111122,1111122' 
COMPS,ioos:station:USF.COMPS:TAR:1,2014-08-01T09:48:00Z,28.1560,-82.7580,7.0,0.09,136.59,0.49,'1111122,1111122,1111122' 
COMPS,ioos:station:USF.COMPS:TAR:1,2014-08-01T09:54:00Z,28.1560,-82.7580,7.0,0.08,59.1,0.58,'1111122,1111122,1111122' 
COMPS,ioos:station:USF.COMPS:TAR:1,2014-08-01T10:12:00Z,28.1560,-82.7580,7.0,0.33,127.37,0.78,'1111122,1111122,1111122' 
COMPS,ioos:station:USF.COMPS:TAR:1,2014-08-01T10:18:00Z,28.1560,-82.7580,7.0,0.55,98.15,0.88,'1111122,1111122,1111122' 
COMPS,ioos:station:USF.COMPS:TAR:1,2014-08-01T10:24:00Z,28.1560,-82.7580,7.0,0.49,86.8,0.78,'1111122,1111122,1111122' 
COMPS,ioos:station:USF.COMPS:TAR:1,2014-08-01T10:30:00Z,28.1560,-82.7580,7.0,0.44,49.1,0.78,'1111122,1111122,1111122' 
COMPS,ioos:station:USF.COMPS:TAR:1,2014-08-01T10:36:00Z,28.1560,-82.7580,7.0,0.22,54.23,0.49,'1111122,1111122,1111122' 
COMPS,ioos:station:USF.COMPS:TAR:1,2014-08-01T10:42:00Z,28.1560,-82.7580,7.0,0.27,90.4,0.58,'1111122,1111122,1111122' 
COMPS,ioos:station:USF.COMPS:TAR:1,2014-08-01T10:48:00Z,28.1560,-82.7580,7.0,0.16,57.9,0.58,'1111122,1111122,1111122' 
COMPS,ioos:station:USF.COMPS:TAR:1,2014-08-01T10:54:00Z,28.1560,-82.7580,7.0,0.08,160.52,0.29,'1111122,1111122,1111122' 
COMPS,ioos:station:USF.COMPS:TAR:1,2014-08-01T11:00:00Z,28.1560,-82.7580,7.0,0.08,107.18,0.39,'1111122,1111122,1111122' 
COMPS,ioos:station:USF.COMPS:TAR:1,2014-08-01T11:06:00Z,28.1560,-82.7580,7.0,0.35,67.78,0.68,'1111122,1111122,1111122' 
COMPS,ioos:station:USF.COMPS:TAR:1,2014-08-01T11:12:00Z,28.1560,-82.7580,7.0,0.34,84.69,0.78,'1111122,1111122,1111122' 
COMPS,ioos:station:USF.COMPS:TAR:1,2014-08-01T11:18:00Z,28.1560,-82.7580,7.0,0.34,73.92,0.58,'1111122,1111122,1111122' 
COMPS,ioos:station:USF.COMPS:TAR:1,2014-08-01T11:24:00Z,28.1560,-82.7580,7.0,0.45,87.14,0.97,'1111122,1111122,1111122' 
COMPS,ioos:station:USF.COMPS:TAR:1,2014-08-01T11:30:00Z,28.1560,-82.7580,7.0,0.16,65.03,0.49,'1111122,1111122,1111122' 
COMPS,ioos:station:USF.COMPS:TAR:1,2014-08-01T11:36:00Z,28.1560,-82.7580,7.0,0.44,81.55,0.78,'1111122,1111122,1111122' 
COMPS,ioos:station:USF.COMPS:TAR:1,2014-08-01T11:42:00Z,28.1560,-82.7580,7.0,0.69,90.92,1.07,'1111122,1111122,1111122' 
COMPS,ioos:station:USF.COMPS:TAR:1,2014-08-01T11:48:00Z,28.1560,-82.7580,7.0,0.55,82.71,1.07,'1111122,1111122,1111122' 
COMPS,ioos:station:USF.COMPS:TAR:1,2014-08-01T11:54:00Z,28.1560,-82.7580,7.0,0.77,87.92,1.76,'1111122,1111122,1111122' 
COMPS,ioos:station:USF.COMPS:TAR:1,2014-08-01T12:00:00Z,28.1560,-82.7580,7.0,1.06,85.22,1.76,'1111122,1111122,1111122' 
COMPS,ioos:station:USF.COMPS:TAR:1,2014-08-01T12:06:00Z,28.1560,-82.7580,7.0,0.79,80.37,1.46,'1111122,1111122,1111122' 
COMPS,ioos:station:USF.COMPS:TAR:1,2014-08-01T12:12:00Z,28.1560,-82.7580,7.0,0.8,95.34,1.56,'1111122,1111122,1111122' 
COMPS,ioos:station:USF.COMPS:TAR:1,2014-08-01T12:18:00Z,28.1560,-82.7580,7.0,1.08,82.76,2.05,'1111122,1111122,1111122' 
COMPS,ioos:station:USF.COMPS:TAR:1,2014-08-01T12:24:00Z,28.1560,-82.7580,7.0,0.77,77.06,1.37,'1111122,1111122,1111122' 
COMPS,ioos:station:USF.COMPS:TAR:1,2014-08-01T12:30:00Z,28.1560,-82.7580,7.0,1.13,93.77,2.05,'1111122,1111122,1111122' 
COMPS,ioos:station:USF.COMPS:TAR:1,2014-08-01T12:36:00Z,28.1560,-82.7580,7.0,1.36,38.43,2.35,'1111122,1111122,1111122' 
COMPS,ioos:station:USF.COMPS:TAR:1,2014-08-01T12:42:00Z,28.1560,-82.7580,7.0,1.7,41.31,2.54,'1111122,1111122,1111122' 
COMPS,ioos:station:USF.COMPS:TAR:1,2014-08-01T12:48:00Z,28.1560,-82.7580,7.0,0.98,45.33,1.86,'1111122,1111122,1111122' 
COMPS,ioos:station:USF.COMPS:TAR:1,2014-08-01T12:54:00Z,28.1560,-82.7580,7.0,1.48,36.87,2.05,'1111122,1111122,1111122' 
COMPS,ioos:station:USF.COMPS:TAR:1,2014-08-01T13:00:00Z,28.1560,-82.7580,7.0,0.96,43.76,1.46,'1111122,1111122,1111122' 
COMPS,ioos:station:USF.COMPS:TAR:1,2014-08-01T13:06:00Z,28.1560,-82.7580,7.0,1.12,33.69,1.56,'1111122,1111122,1111122' 
COMPS,ioos:station:USF.COMPS:TAR:1,2014-08-01T13:12:00Z,28.1560,-82.7580,7.0,0.8,56.52,1.17,'1111122,1111122,1111122' 
COMPS,ioos:station:USF.COMPS:TAR:1,2014-08-01T13:18:00Z,28.1560,-82.7580,7.0,0.57,69.22,0.97,'1111122,1111122,1111122' 
COMPS,ioos:station:USF.COMPS:TAR:1,2014-08-01T13:24:00Z,28.1560,-82.7580,7.0,0.89,53.79,1.95,'1111122,1111122,1111122' 
COMPS,ioos:station:USF.COMPS:TAR:1,2014-08-01T13:30:00Z,28.1560,-82.7580,7.0,0.88,51.88,1.66,'1111122,1111122,1111122' 
COMPS,ioos:station:USF.COMPS:TAR:1,2014-08-01T13:36:00Z,28.1560,-82.7580,7.0,0.6,101.45,1.46,'1111122,1111122,1111122' 
COMPS,ioos:station:USF.COMPS:TAR:1,2014-08-01T13:42:00Z,28.1560,-82.7580,7.0,0.58,82.08,1.37,'1111122,1111122,1111122' 
COMPS,ioos:station:USF.COMPS:TAR:1,2014-08-01T13:48:00Z,28.1560,-82.7580,7.0,0.73,104.53,1.46,'1111122,1111122,1111122' 
COMPS,ioos:station:USF.COMPS:TAR:1,2014-08-01T13:54:00Z,28.1560,-82.7580,7.0,0.23,74.45,0.78,'1111122,1111122,1111122' 
COMPS,ioos:station:USF.COMPS:TAR:1,2014-08-01T14:00:00Z,28.1560,-82.7580,7.0,1.17,33.37,2.05,'1111122,1111122,1111122' 
COMPS,ioos:station:USF.COMPS:TAR:1,2014-08-01T14:06:00Z,28.1560,-82.7580,7.0,1.32,30.79,1.95,'1111122,1111122,1111122' 
COMPS,ioos:station:USF.COMPS:TAR:1,2014-08-01T14:12:00Z,28.1560,-82.7580,7.0,1.07,32.22,1.86,'1111122,1111122,1111122' 
COMPS,ioos:station:USF.COMPS:TAR:1,2014-08-01T14:18:00Z,28.1560,-82.7580,7.0,0.35,31.68,1.07,'1111122,1111122,1111122' 
COMPS,ioos:station:USF.COMPS:TAR:1,2014-08-01T14:24:00Z,28.1560,-82.7580,7.0,0.34,305.42,1.17,'1111122,1111122,1111122' 
COMPS,ioos:station:USF.COMPS:TAR:1,2014-08-01T14:30:00Z,28.1560,-82.7580,7.0,1.12,133.24,2.54,'1111122,1111122,1111122' 
COMPS,ioos:station:USF.COMPS:TAR:1,2014-08-01T14:36:00Z,28.1560,-82.7580,7.0,1.26,203.14,2.54,'1111122,1111122,1111122' 
COMPS,ioos:station:USF.COMPS:TAR:1,2014-08-01T14:42:00Z,28.1560,-82.7580,7.0,1.02,269.22,2.93,'1111122,1111122,1111122' 
COMPS,ioos:station:USF.COMPS:TAR:1,2014-08-01T14:48:00Z,28.1560,-82.7580,7.0,2.13,312.54,3.33,'1111122,1111122,1111122' 
COMPS,ioos:station:USF.COMPS:TAR:1,2014-08-01T14:54:00Z,28.1560,-82.7580,7.0,1.67,334.98,2.74,'1111122,1111122,1111122' 
COMPS,ioos:station:USF.COMPS:TAR:1,2014-08-01T15:00:00Z,28.1560,-82.7580,7.0,1.39,347.95,2.25,'1111122,1111122,1111122' 
COMPS,ioos:station:USF.COMPS:TAR:1,2014-08-01T15:06:00Z,28.1560,-82.7580,7.0,1.12,311.05,2.05,'1111122,1111122,1111122' 
COMPS,ioos:station:USF.COMPS:TAR:1,2014-08-01T15:12:00Z,28.1560,-82.7580,7.0,1.98,298.3,4.01,'1111122,1111122,1111122' 
COMPS,ioos:station:USF.COMPS:TAR:1,2014-08-01T15:18:00Z,28.1560,-82.7580,7.0,1.6,275.51,2.84,'1111122,1111122,1111122' 
COMPS,ioos:station:USF.COMPS:TAR:1,2014-08-01T15:24:00Z,28.1560,-82.7580,7.0,1.74,264.98,3.13,'1111122,1111122,1111122' 
COMPS,ioos:station:USF.COMPS:TAR:1,2014-08-01T15:30:00Z,28.1560,-82.7580,7.0,1.47,293.27,2.64,'1111122,1111122,1111122' 
COMPS,ioos:station:USF.COMPS:TAR:1,2014-08-01T15:36:00Z,28.1560,-82.7580,7.0,1.67,308.7,3.52,'1111122,1111122,1111122' 
COMPS,ioos:station:USF.COMPS:TAR:1,2014-08-01T15:42:00Z,28.1560,-82.7580,7.0,2.54,306.16,3.82,'1111122,1111122,1111122' 
COMPS,ioos:station:USF.COMPS:TAR:1,2014-08-01T15:48:00Z,28.1560,-82.7580,7.0,2.19,301.24,3.13,'1111122,1111122,1111122' 
COMPS,ioos:station:USF.COMPS:TAR:1,2014-08-01T15:54:00Z,28.1560,-82.7580,7.0,2.6,311.85,4.01,'1111122,1111122,1111122' 
COMPS,ioos:station:USF.COMPS:TAR:1,2014-08-01T16:00:00Z,28.1560,-82.7580,7.0,2.29,303.88,4.11,'1111122,1111122,1111122' 
COMPS,ioos:station:USF.COMPS:TAR:1,2014-08-01T16:06:00Z,28.1560,-82.7580,7.0,2.0,307.29,4.01,'1111122,1111122,1111122' 
COMPS,ioos:station:USF.COMPS:TAR:1,2014-08-01T16:12:00Z,28.1560,-82.7580,7.0,2.82,301.27,4.21,'1111122,1111122,1111122' 
COMPS,ioos:station:USF.COMPS:TAR:1,2014-08-01T16:18:00Z,28.1560,-82.7580,7.0,2.52,310.51,4.8,'1111122,1111122,1111122' 
COMPS,ioos:station:USF.COMPS:TAR:1,2014-08-01T16:24:00Z,28.1560,-82.7580,7.0,2.07,309.48,4.9,'1111122,1111122,1111122' 
COMPS,ioos:station:USF.COMPS:TAR:1,2014-08-01T16:30:00Z,28.1560,-82.7580,7.0,2.1,307.33,3.82,'1111122,1111122,1111122' 
COMPS,ioos:station:USF.COMPS:TAR:1,2014-08-01T16:36:00Z,28.1560,-82.7580,7.0,2.73,281.6,4.6,'1111122,1111122,1111122' 
COMPS,ioos:station:USF.COMPS:TAR:1,2014-08-01T16:42:00Z,28.1560,-82.7580,7.0,2.43,274.18,3.82,'1111122,1111122,1111122' 
COMPS,ioos:station:USF.COMPS:TAR:1,2014-08-01T16:48:00Z,28.1560,-82.7580,7.0,2.36,296.16,4.41,'1111122,1111122,1111122' 
COMPS,ioos:station:USF.COMPS:TAR:1,2014-08-01T16:54:00Z,28.1560,-82.7580,7.0,2.89,286.74,4.11,'1111122,1111122,1111122' 
COMPS,ioos:station:USF.COMPS:TAR:1,2014-08-01T17:00:00Z,28.1560,-82.7580,7.0,2.5,285.01,4.21,'1111122,1111122,1111122' 
COMPS,ioos:station:USF.COMPS:TAR:1,2014-08-01T17:06:00Z,28.1560,-82.7580,7.0,3.0,285.09,5.19,'1111122,1111122,1111122' 
COMPS,ioos:station:USF.COMPS:TAR:1,2014-08-01T17:12:00Z,28.1560,-82.7580,7.0,2.82,305.11,5.09,'1111122,1111122,1111122' 
COMPS,ioos:station:USF.COMPS:TAR:1,2014-08-01T17:18:00Z,28.1560,-82.7580,7.0,2.67,291.85,5.48,'1111122,1111122,1111122' 
COMPS,ioos:station:USF.COMPS:TAR:1,2014-08-01T17:24:00Z,28.1560,-82.7580,7.0,2.84,296.65,4.5,'1111122,1111122,1111122' 
COMPS,ioos:station:USF.COMPS:TAR:1,2014-08-01T17:30:00Z,28.1560,-82.7580,7.0,2.39,317.52,5.09,'1111122,1111122,1111122' 
COMPS,ioos:station:USF.COMPS:TAR:1,2014-08-01T17:36:00Z,28.1560,-82.7580,7.0,3.02,327.52,4.9,'1111122,1111122,1111122' 
COMPS,ioos:station:USF.COMPS:TAR:1,2014-08-01T17:42:00Z,28.1560,-82.7580,7.0,2.99,321.9,5.68,'1111122,1111122,1111122' 
COMPS,ioos:station:USF.COMPS:TAR:1,2014-08-01T17:48:00Z,28.1560,-82.7580,7.0,2.59,317.52,3.82,'1111122,1111122,1111122' 
COMPS,ioos:station:USF.COMPS:TAR:1,2014-08-01T17:54:00Z,28.1560,-82.7580,7.0,2.89,323.44,6.17,'1111122,1111122,1111122' 
COMPS,ioos:station:USF.COMPS:TAR:1,2014-08-01T18:00:00Z,28.1560,-82.7580,7.0,3.17,327.99,5.29,'1111122,1111122,1111122' 
COMPS,ioos:station:USF.COMPS:TAR:1,2014-08-01T18:06:00Z,28.1560,-82.7580,7.0,2.16,328.74,5.29,'1111122,1111122,1111122' 
COMPS,ioos:station:USF.COMPS:TAR:1,2014-08-01T18:12:00Z,28.1560,-82.7580,7.0,3.03,321.94,5.19,'1111122,1111122,1111122' 
COMPS,ioos:station:USF.COMPS:TAR:1,2014-08-01T18:18:00Z,28.1560,-82.7580,7.0,2.24,336.26,4.7,'1111122,1111122,1111122' 
COMPS,ioos:station:USF.COMPS:TAR:1,2014-08-01T18:24:00Z,28.1560,-82.7580,7.0,2.76,333.42,4.99,'1111122,1111122,1111122' 
COMPS,ioos:station:USF.COMPS:TAR:1,2014-08-01T18:30:00Z,28.1560,-82.7580,7.0,2.76,345.7,4.7,'1111122,1111122,1111122' 
COMPS,ioos:station:USF.COMPS:TAR:1,2014-08-01T18:36:00Z,28.1560,-82.7580,7.0,3.02,312.3,4.9,'1111122,1111122,1111122' 
COMPS,ioos:station:USF.COMPS:TAR:1,2014-08-01T18:42:00Z,28.1560,-82.7580,7.0,2.98,330.81,5.78,'1111122,1111122,1111122' 
COMPS,ioos:station:USF.COMPS:TAR:1,2014-08-01T18:48:00Z,28.1560,-82.7580,7.0,2.44,339.6,4.01,'1111122,1111122,1111122' 
COMPS,ioos:station:USF.COMPS:TAR:1,2014-08-01T18:54:00Z,28.1560,-82.7580,7.0,2.8,330.36,4.7,'1111122,1111122,1111122' 
COMPS,ioos:station:USF.COMPS:TAR:1,2014-08-01T19:00:00Z,28.1560,-82.7580,7.0,3.21,337.93,5.78,'1111122,1111122,1111122' 
COMPS,ioos:station:USF.COMPS:TAR:1,2014-08-01T19:06:00Z,28.1560,-82.7580,7.0,3.13,333.01,5.39,'1111122,1111122,1111122' 
COMPS,ioos:station:USF.COMPS:TAR:1,2014-08-01T19:12:00Z,28.1560,-82.7580,7.0,3.41,329.67,5.97,'1111122,1111122,1111122' 
COMPS,ioos:station:USF.COMPS:TAR:1,2014-08-01T19:18:00Z,28.1560,-82.7580,7.0,2.35,320.26,4.41,'1111122,1111122,1111122' 
COMPS,ioos:station:USF.COMPS:TAR:1,2014-08-01T19:24:00Z,28.1560,-82.7580,7.0,2.87,332.57,5.48,'1111122,1111122,1111122' 
COMPS,ioos:station:USF.COMPS:TAR:1,2014-08-01T19:30:00Z,28.1560,-82.7580,7.0,3.04,332.7,4.8,'1111122,1111122,1111122' 
COMPS,ioos:station:USF.COMPS:TAR:1,2014-08-01T19:36:00Z,28.1560,-82.7580,7.0,2.94,342.34,5.09,'1111122,1111122,1111122' 
COMPS,ioos:station:USF.COMPS:TAR:1,2014-08-01T19:42:00Z,28.1560,-82.7580,7.0,3.11,340.08,4.7,'1111122,1111122,1111122' 
COMPS,ioos:station:USF.COMPS:TAR:1,2014-08-01T19:48:00Z,28.1560,-82.7580,7.0,2.91,330.69,5.19,'1111122,1111122,1111122' 
COMPS,ioos:station:USF.COMPS:TAR:1,2014-08-01T19:54:00Z,28.1560,-82.7580,7.0,2.89,333.71,4.8,'1111122,1111122,1111122' 
COMPS,ioos:station:USF.COMPS:TAR:1,2014-08-01T20:00:00Z,28.1560,-82.7580,7.0,3.11,344.55,5.19,'1111122,1111122,1111122' 
COMPS,ioos:station:USF.COMPS:TAR:1,2014-08-01T20:06:00Z,28.1560,-82.7580,7.0,2.52,335.8,4.5,'1111122,1111122,1111122' 